Regional Weather Roundup
Issued by NWS

Home | Current Version | Previous Version | Text Only | Print | Product List | Glossary On
Versions: 1 2 3 4 5 6 7 8 9 10 11 12 13 14 15 16 17 18 19 20 21 22 23 24 25 26 27 28 29 30 31 32 33 34 35 36 37 38 39 40 41 42 43 44 45 46 47 48 49 50
000
ASUS43 KDTX 280501
RWRMI
MICHIGAN HOURLY REGIONAL WEATHER ROUNDUP
NATIONAL WEATHER SERVICE DETROIT/PONTIAC MI
100 AM EDT THU MAY 28 2015

NOTE: "FAIR" INDICATES FEW OR NO CLOUDS BELOW 12,000 FEET WITH NO
SIGNIFICANT WEATHER AND/OR OBSTRUCTION TO VISIBILITY.

MIZ047>049-052>055-059>063-066>070-074>076-081>083-280600-
SOUTHEAST LOWER MICHIGAN

CITY           SKY/WX    TMP DP  RH WIND       PRES   REMARKS
ADRIAN         CLEAR     60  57  89 CALM      30.12R
ALMA           CLEAR     56  55  96 CALM      30.11R
ANN ARBOR      CLEAR     62  56  80 NW5       30.11R
BAD AXE        CLEAR     56  51  81 CALM      30.09R
CARO           CLEAR     54  52  95 CALM      30.10R
DETROIT CITY   PTCLDY    66  56  70 NW8       30.09R
DETROIT        MOCLDY    64  56  75 VRB3      30.10R
FLINT          CLEAR     62  56  80 W3        30.10R
GROSSE ILE     PTCLDY    64  59  82 NW3       30.09R
HILLSDALE      CLEAR     60  58  91 NW3       30.13R
HOWELL         CLEAR     59  55  87 W5        30.11R

CITY           SKY/WX    TMP DP  RH WIND       PRES   REMARKS
JACKSON        CLEAR     59  55  87 W3        30.12R
LAMBERTVILLE   CLEAR     63  59  88 CALM      30.12R
LANSING        CLEAR     58  55  90 W3        30.12R
LAPEER         FAIR      58  55  88 CALM      30.10S
MASON          CLEAR     57  54  89 W3        30.12R
MONROE         PTCLDY    64  57  77 NW6       30.09R
MT. CLEMENS    PTCLDY    64  57  78 W5        30.07R
PONTIAC        CLEAR     61  56  83 NW6       30.09S
PORT HOPE        N/A     62  54  74 W10       30.06R
PORT HURON     CLEAR     63  57  82 NW3       30.09S
TRI CITIES     CLEAR     62  55  77 SW5       30.10R
MIDLAND        FAIR      55  54  97 CALM      30.09R
TROY           PTCLDY    66  58  76 NW6       30.11R
SAGINAW HB     CLEAR     61  57  88 CALM      30.09R
$$
MIZ043>046-050>051-056>058-064>065-071>073-077>080-280600-
SOUTHWEST LOWER MICHIGAN

CITY           SKY/WX    TMP DP  RH WIND       PRES   REMARKS
BATTLE CREEK   CLEAR     58  54  86 W5        30.13R
BENTON HARBOR  CLEAR     51  51 100 CALM      30.13R FOG
BIG RAPIDS     MOCLDY    56  53  91 CALM      30.10R
COLDWATER      CLEAR     56  54  95 CALM      30.13S
FREMONT        FAIR      53  52  96 CALM      30.10R
HOLLAND        CLEAR     55  53  93 CALM      30.13R
GRAND RAPIDS   CLEAR     57  55  93 S5        30.12R
IONIA          FAIR      58  55  90 W3        30.11R
KALAMAZOO      FAIR      55  53  93 SW3       30.13R
LUDINGTON      CLEAR     58  51  78 SW6       30.09R
MARSHALL       CLEAR     55  53  94 CALM      30.12R
MOUNT PLEASANT CLEAR     56  54  94 CALM      30.09R
MUSKEGON       CLOUDY    53  51  93 CALM      30.12R FOG
SOUTH HAVEN    CLEAR     53  52  96 CALM      30.12S
$$
MIZ016>042-280600-
NORTHERN LOWER MICHIGAN

CITY           SKY/WX    TMP DP  RH WIND       PRES   REMARKS
ALPENA         CLEAR     57  53  86 W3        30.08R
BEAVER ISLAND  CLOUDY    56  52  86 CALM      30.05S
BELLAIRE       PTCLDY    55  54  95 CALM      30.08R
CADILLAC       RAIN      57  55  92 SW5       30.10S
CHARLEVOIX     MOCLDY    58  55  89 CALM      30.09S
FRANKFORT      CLOUDY    63  50  62 SE5       30.11R
GAYLORD        CLEAR     57  57 100 SW6       30.09R
GRAYLING       CLEAR     50  50 100 CALM      30.11R
HARBOR SPRINGS PTCLDY    51  51  97 CALM      30.07R
HOUGHTON LAKE  CLEAR     54  53  97 CALM      30.11R
MANISTEE       FAIR      55  50  82 SE3       30.09R
OSCODA         CLEAR     56  53  86 NW5       30.07R
PELLSTON       PTCLDY    52  51  97 CALM      30.07
ROGERS CITY    CLEAR     56  53  91 SW5       30.08R
TRAVERSE CITY  LGT RAIN  61  55  81 W10       30.08R
$$
MIZ007>008-015-280600-
EASTERN UPPER MICHIGAN

CITY           SKY/WX    TMP DP  RH WIND       PRES   REMARKS
KINROSS        CLOUDY    54  54 100 CALM      30.06S
MACKINAC ISLAN CLEAR     56  54  95 S6        30.06R
NEWBERRY       MOCLDY    52  50  93 SW10      30.05R
S. S. MARIE    CLOUDY    50  48  93 CALM      30.06R
$$
MIZ004>006-011>014-085-280600-
CENTRAL UPPER MICHIGAN

CITY           SKY/WX    TMP DP  RH WIND       PRES   REMARKS
MANISTIQUE     MOCLDY    44  42  95 CALM      30.04S
ESCANABA       PTCLDY    54  50  87 CALM      30.03R
MENOMINEE      PTCLDY    59  54  82 W5        30.05R
SAWYER-GWINN   PTCLDY    55  51  87 N3        30.06S
$$
MIZ001>003-009>011-084-280600-
WESTERN UPPER MICHIGAN

CITY           SKY/WX    TMP DP  RH WIND       PRES   REMARKS
IRON MOUNTAIN  CLEAR     58  52  80 CALM      30.04R
HOUGHTON       CLEAR     51  46  83 E7        30.08R
COPPER HARBOR    N/A     45  39  79 SE6       30.10R
IRONWOOD       CLEAR     54  52  94 E6        30.03R
$$

ABBREVIATIONS USED IN REMARKS
   TC - TEMPERATURE IN CELSIUS
  WCI - WIND CHILL INDEX
   HX - HEAT INDEX
  VSB - VISIBILITY



USA.gov is the U.S. government's official web portal to all federal, state and local government web resources and services.